www.pogodaiklimat.ru

АРХИВ ПОГОДЫ в Краснодаре

Время (UTC), дата Ветер
(напр.,м/с)
 
Видим.   Явления Облачность Т
(С)
Тd
(С)
f
(%)
Тe
(С)
Тes
(С)
Комфортность P
(гПа)
Po
(гПа)
Тmin
(С)
Tmax
(С)
R
(мм)
S
(см)
21 9.01 штиль 0 10 км {дождь} 10/10 300 м
[St]
+2.8 -0.3 80 +2 +2 по сезону 1019.3 1015.5
00 10.01 СВ 1 10 км {дождь} 10/10 1000 м
[Sc]
+2.5 -0.8 79 +1 +1 по сезону 1020.6 1016.8
03 10.01 З 2 1000 м слабая морось 10/10 200 м
[St]
+2.2 +0.8 90 -1 -1 по сезону 1022.1 1018.3 +2.2 0.1
06 10.01 З 2 10 км {морось} 9/9 300 м
[St]
+1.3 -0.6 87 -2 -2 по сезону 1024.5 1020.7 +1.3
09 10.01 ЮЗ 2 10 км 10/8 600 м
[Sc Ac trans]
+2.2 -0.6 82 -1 -1 по сезону 1025.9 1022.2
12 10.01 СЗ 1 10 км 9/9 600 м
[Sc]
+1.4 -1.5 81 -0 -0 по сезону 1025.8 1022.0
15 10.01 В 1 4000 м дымка 10/8 600 м
[Sc Ac und]
+1.1 -1.3 84 -1 -1 по сезону 1026.1 1022.3 +2.4 0.0
18 10.01 СВ 2 4000 м дымка 4/4 600 м
[Sc]
+0.5 -1.8 85 -3 -3 по сезону 1025.3 1021.5
21 10.01 В 2 4000 м дымка ясно 0.0 -2.5 83 -4 -4 по сезону 1024.6 1020.7
00 11.01 В 2 4000 м дымка ясно -0.2 -3.0 81 -4 -4 по сезону 1023.9 1020.0
03 11.01 В 2 4000 м дымка ясно -0.6 -3.5 81 -4 -4 по сезону 1023.1 1019.3 -0.7
06 11.01 В 3 4000 м дымка 8/0
[Ci fib]
-0.6 -3.4 81 -5 -5 по сезону 1023.5 1019.7 -1.2
09 11.01 В 3 10 км 10/0
[Ac trans Ci fib]
+1.6 -2.0 77 -3 -1 по сезону 1023.3 1019.5
12 11.01 В 3 10 км 10/0
[Ci fib]
+4.5 -0.7 69 +1 +2 по сезону 1023.2 1019.4
15 11.01 штиль 0 10 км 10/8 1000 м
[Sc Ac As]
+3.8 0.0 76 +3 +3 по сезону 1025.0 1021.2 +4.6
18 11.01 В 1 10 км {дождь} 10/8 1500 м
[Cb cap Ac As]
+3.1 +0.7 84 +2 +2 по сезону 1025.9 1022.1
21 11.01 ЮВ 1 10 км 4/0
[Ci fib]
+4.1 +2.8 91 +3 +3 тепло 1025.1 1021.3
00 12.01 В 1 10 км 5/0
[Ci fib]
+2.3 +1.3 93 +1 +1 по сезону 1024.0 1020.2
03 12.01 В 2 10 км 10/0
[Ac trans Ci fib]
+2.3 -1.1 78 -1 -1 по сезону 1021.4 1017.6 +0.4 0.6
06 12.01 В 2 10 км 8/3 1000 м
[Sc Ac trans Ci fib]
+3.0 -3.0 65 0 +1 по сезону 1019.3 1015.5
09 12.01 В 2 10 км 9/0
[Ac trans Ci fib]
+7.1 -1.2 56 +5 +7 тепло 1015.8 1012.1
12 12.01 В 1 10 км 10/6 1000 м
[Sc Ac und]
+7.2 -0.3 59 +7 +7 тепло 1012.6 1008.9
15 12.01 штиль 0 10 км 9/8 1000 м
[Sc Ac As]
+5.8 +0.2 67 +5 +5 тепло 1010.8 1007.1 +7.4
18 12.01 Ю 3 10 км 8/4 1000 м
[Sc Ac As Ci fib]
+9.0 -1.4 48 +7 +7 тепло 1010.5 1006.8
21 12.01 З 3
{12}
10 км в посл. час ливневой дождь 10/10 300 м
[Cb cap]
+2.4 +0.2 85 -2 -2 по сезону 1013.7 1009.9
00 13.01 З 1 10 км {ливн. осадки} 3/3 300 м
[St]
+0.4 -1.0 90 -2 -2 по сезону 1017.0 1013.2
03 13.01 Ю 1 10 км 10/10 300 м
[St]
+0.8 -1.1 87 -1 -1 по сезону 1017.1 1013.3 +0.3 2
06 13.01 З 1 10 км 10/8 300 м
[St Ac trans Ci fib]
+1.4 -0.5 87 -0 -0 по сезону 1017.9 1014.1
09 13.01 З 3 10 км {снег} 10/6 600 м
[Sc Ac trans Ci fib]
+1.8 -3.0 70 -2 -2 по сезону 1020.1 1016.3
12 13.01 З 1 10 км {снег} 5/0
[Ac trans Cc]
+3.2 -6.4 49 +2 +4 по сезону 1020.9 1017.1
15 13.01 штиль 0 10 км ясно +0.3 -4.6 70 -1 -1 по сезону 1022.3 1018.5 +3.8 0.0
18 13.01 ЮВ 1 10 км ясно -0.1 -3.3 79 -2 -2 по сезону 1022.7 1018.9
21 13.01 СВ 1 10 км 9/9 600 м
[Sc]
+0.7 -2.3 80 -1 -1 по сезону 1021.9 1018.1
00 14.01 В 1 10 км ясно -0.6 -1.8 92 -3 -3 по сезону 1021.2 1017.4
03 14.01 В 2 10 км 10/0
[Ac trans Ci fib]
-0.1 -1.6 90 -4 -4 по сезону 1020.7 1016.9 -1.1
06 14.01 В 2 10 км 8/0
[Ac trans]
-0.3 -2.2 87 -4 -4 по сезону 1019.7 1015.9
09 14.01 В 3 10 км 6/0
[Ac trans Cc]
+3.7 -2.6 63 0 +3 по сезону 1017.7 1013.9
12 14.01 В 3 10 км 8/3 1000 м
[Sc Ac trans Cc]
+4.6 -2.4 60 +1 +2 по сезону 1016.2 1012.5
15 14.01 В 1 10 км 8/3 1000 м
[Sc Ac trans Ci fib]
+3.1 -2.5 67 +2 +2 по сезону 1016.4 1012.6 +6.0
18 14.01 В 2 10 км 9/0
[Ac trans Ci]
+1.9 -2.4 73 -1 -1 по сезону 1015.7 1012.0
21 14.01 В 2 10 км 5/0
[Ci fib]
0.0 -3.0 80 -4 -4 по сезону 1015.5 1011.7
00 15.01 В 1 10 км 9/0
[Ac trans]
-0.7 -3.4 82 -3 -3 по сезону 1015.2 1011.4
03 15.01 В 1 10 км 3/0
[Ci sp]
-0.5 -3.3 81 -2 -2 по сезону 1015.1 1011.3 -0.9
06 15.01 В 2 10 км 10/0
[Ci fib]
+0.1 -3.0 80 -3 -3 по сезону 1015.8 1012.0 -1.0
09 15.01 СВ 1 10 км 10/3 1000 м
[Sc Ac trans Ci fib]
+3.5 -2.0 67 +2 +4 по сезону 1016.0 1012.3
12 15.01 СВ 2 10 км 10/3 1000 м
[Sc Ac trans Ci fib]
+7.0 -0.8 58 +5 +6 тепло 1016.2 1012.5
15 15.01 В 2 10 км 4/0
[Ac trans Ci fib]
+4.3 -0.3 72 +2 +2 по сезону 1017.1 1013.4 +7.0
18 15.01 В 1 10 км 10/6 1000 м
[Sc Ac trans Ci fib]
+3.8 -0.9 71 +3 +3 тепло 1017.9 1014.1
21 15.01 В 1 10 км 6/0
[Ci fib]
+2.8 -1.3 74 +1 +1 по сезону 1018.9 1015.1
00 16.01 штиль 0 10 км 10/0
[Ci fib]
+2.1 -1.1 79 +1 +1 по сезону 1019.5 1015.7
03 16.01 В 1 10 км {дождь} 10/6 1000 м
[Sc Ci fib]
+4.6 +1.3 79 +3 +3 тепло 1019.9 1016.1 +1.8 0.0
06 16.01 штиль 0 10 км в посл. час дождь 10/10 300 м
[Frnb]
+4.1 +3.1 93 +3 +3 тепло 1021.4 1017.6
09 16.01 ЮЗ 1 4000 м дымка {дождь} 10/10 300 м
[Frnb]
+5.2 +4.1 93 +4 +4 тепло 1022.2 1018.5
12 16.01 З 1 10 км {дождь} 9/9 1000 м
[Sc]
+6.3 +4.5 88 +5 +5 тепло 1022.2 1018.5
15 16.01 С 1 1000 м дымка 10/10 200 м
[St]
+4.6 +3.5 93 +3 +3 по сезону 1022.6 1018.8 +6.4 4
18 16.01 С 1 500 м туман н/о +3.7 +2.8 94 +2 +2 по сезону 1022.3 1018.5

 

Местоположение метеостанции Краснодар (Краснодарский край, Россия): широта 45.05 долгота 39.03 высота над уровнем моря 29 м.

В архиве по умолчанию представлена погода в Краснодаре за последнюю неделю. Архивные данные за месяц целиком и за предыдущие месяцы, начиная с января 2011 года, Вы можете получить, выбрав интересующий диапазон дат из раскрывающегося списка и нажав кнопку "Ввод!".

Внимание! Время в таблицах - всемирное. Для получения местного времени необходимо прибавить поправку, которая в Краснодаре равна 3 ч.

Ветер - указаны скорость ветра в м/с - средняя за 10 мин, порывы в срок и между сроками (в фигурных скобках) и направление, откуда дует ветер: С - северный, СВ - северо-восточный, В - восточный, ЮВ - юго-восточный, Ю - южный, ЮЗ - юго-западный, З - западный, СЗ - северо-западный.
Видимость - горизонтальная дальность видимости в метрах или километрах. При видимости от 1 до 10 км при отсутствии осадков обычно наблюдается дымка, при ухудшении видимости до 1 км и менее - туман. В сухую погоду видимость может ухудшаться дымом, пылью или мглою.
Явления - указаны атмосферные явления, наблюдавшиеся в срок или в последний час перед сроком; фигурными скобками обозначены явления, наблюдавшиеся между сроками (за 1-3 часа до срока); квадратными скобками обозначены град или гололедные отложения с указанием их диаметра в мм.
Облачность - указаны через наклонную черту общая и нижняя облачность в баллах и высота нижней границы облаков в метрах; квадратными скобками обозначены формы облаков: Ci - перистые, Cs - перисто-слоистые, Cc - перисто-кучевые, Ac - высококучевые, As - высокослоистые, Sc - слоисто-кучевые, Ns - слоисто-дождевые, Cu - кучевые, Cb - кучево-дождевые. Подробнее классификацию облаков см. в Атласе облаков (PDF).
T - Температура воздуха - температура, измеренная на высоте 2 м над землей.
Td - Температура точки росы - температура, при понижении до которой содержащийся в воздухе водяной пар достигнет насыщения.
f - Относительная влажность воздуха - влажноcть воздуха, измеренная на высоте 2 м над землей.
Te - Эффективная температура - температура, которую ощущает одетый по сезону человек в тени. Характеристика душности погоды. При расчете учитывается влияние влажности воздуха и скорости ветра на теплоощущения человека.
Tes - Эффективная температура на солнце - температура, которую ощущает человек, с поправкой на солнечный нагрев. Характеристика знойности погоды. Зависит от высоты солнца над горизонтом, облачности и скорости ветра. Ночью, в пасмурную погоду, а также при ветре 12 м/с и более поправка равна нулю.
P - Атмосферное давление - приведенное к уровню моря атмосферное давление.
Po - Атмосферное давление - измеренное на уровне метеостанции атмосферное давление.
Tmin - Минимальная температура - минимум температуры воздуха на высоте 2 м над землей.
Tmax - Максимальная температура - максимум температуры воздуха на высоте 2 м над землей.
R - Количество осадков - Количество выпавших осадков, мм. При наведении курсора мыши на число - период времени, за который выпало указанное количество осадков.
S - Снежный покров - Высота снежного покрова, см. При наведении курсора мыши на число - состояние снежного покрова и степень покрытия местности в баллах.